1499320800.25,8862,18.0,74156.0,9.59,-18.83,-19.47,0,*45
1499320801.47,8863,18.0,74154.0,9.59,-18.55,-19.17,0,*4A
1499320802.71,8864,18.0,74152.8,9.61,-18.49,-18.93,0,*46
1499320803.91,8865,18.0,74152.3,9.59,-19.03,-19.95,0,*44
1499320805.15,8866,18.0,74148.8,9.57,-19.03,-19.31,0,*47
1499320806.4,8867,18.0,74158.3,9.55,-17.41,-17.45,0,*41
1499320807.68,8868,18.0,74156.0,9.57,-17.07,-17.07,0,*48
1499320808.89,8869,18.0,74156.0,9.55,-16.51,-16.83,0,*44
1499320810.1,8870,18.0,74156.3,9.49,-15.99,-16.03,0,*4E
1499320811.38,8871,18.0,74156.8,9.53,-14.51,-14.51,0,*44
1499320812.63,8872,18.0,74156.8,9.55,-14.01,-13.61,0,*40
1499320813.87,8873,18.0,74162.5,9.57,-11.63,-11.23,0,*46
1499320815.1,8874,18.0,74162.8,9.57,-7.69,-8.29,0,*4E
1499320816.27,8875,18.0,74166.3,9.59,-4.45,-4.09,0,*42
1499320817.54,8876,18.0,74168.0,9.61,-5.07,-4.81,0,*4D
1499320818.74,8877,18.0,74166.0,9.63,-6.47,-7.01,0,*42
1499320819.94,8878,18.0,74168.3,9.63,-5.69,-6.01,0,*43
1499320821.18,8879,18.0,74168.8,9.59,-3.71,-5.11,0,*46
1499320822.38,8880,18.0,74168.5,9.59,-2.59,-3.83,0,*46
1499320823.61,8881,18.0,74168.5,9.57,-1.13,-2.43,0,*49
1499320824.82,8882,18.0,74170.3,9.57,-0.57,-2.31,0,*7E
1499320826.04,8883,18.0,74170.0,9.57,0.17,-2.23,0,*55
1499320827.23,8884,18.0,74172.8,9.55,0.41,-3.39,0,*59
1499320828.46,8885,18.0,74174.0,9.57,-0.69,-6.19,0,*7A
1499320829.68,8886,18.0,74178.8,9.53,-3.27,-10.97,0,*75
1499320830.87,8887,18.0,74182.5,9.47,-4.61,-15.25,0,*78
1499320832.12,8888,18.0,74176.3,9.45,-6.19,-17.83,0,*76
1499320833.33,8889,18.0,74178.5,9.41,-8.33,-19.13,0,*72
1499320834.56,8890,18.0,74174.5,9.39,-9.49,-19.75,0,*79
1499320835.77,8891,18.0,74176.5,9.33,-10.09,-19.65,0,*4F
1499320837.0,8892,18.0,74176.3,9.33,-11.45,-20.53,0,*4A
1499320838.23,8893,18.0,74176.0,9.27,-14.15,-22.87,0,*45
1499320839.47,8894,18.0,74180.5,9.23,-16.03,-23.95,0,*41
1499320840.71,8895,18.0,74178.5,9.15,-16.59,-23.85,0,*4B
1499320841.95,8896,18.0,74178.0,9.11,-17.73,-23.95,0,*44
1499320843.15,8897,18.0,74174.5,9.03,-18.11,-23.43,0,*46
1499320844.39,8898,18.0,74172.0,9.01,-17.63,-22.27,0,*42
1499320845.63,8899,18.0,74174.3,9.01,-18.55,-22.63,0,*49
1499320846.86,8900,18.0,74170.8,8.97,-19.13,-22.53,0,*46
1499320848.12,8901,18.0,74166.5,8.93,-18.55,-21.53,0,*43
1499320849.34,8902,18.0,74160.0,8.91,-17.55,-19.91,0,*48
1499320850.56,8903,18.0,74160.3,8.91,-17.45,-19.37,0,*44
1499320851.78,8904,18.0,74158.8,8.91,-17.97,-19.51,0,*4C
1499320853.01,8905,18.0,74160.3,8.89,-18.73,-19.95,0,*49
1499320854.25,8906,18.0,74162.8,8.89,-18.93,-19.71,0,*4E
1499320855.52,8907,18.0,74164.0,8.85,-19.23,-19.85,0,*42
1499320856.76,8908,18.0,74160.8,8.87,-20.15,-20.49,0,*4A
1499320857.98,8909,18.0,74162.0,8.85,-21.09,-21.09,0,*40
1499320859.2,8910,18.0,74154.5,8.81,-18.11,-18.11,0,*4C
1499320860.42,8911,18.0,74152.8,8.81,-17.83,-17.69,0,*49
1499320861.69,8912,18.0,74150.3,8.81,-16.65,-16.31,0,*4F
1499320862.89,8913,18.0,74148.0,8.87,-16.03,-15.49,0,*44
1499320864.13,8914,18.0,74140.8,8.89,-15.63,-14.93,0,*4E
1499320865.37,8915,18.0,74144.0,8.93,-15.11,-14.47,0,*48
1499320866.64,8916,18.0,74144.0,8.97,-14.75,-14.05,0,*4A
1499320867.84,8917,18.0,74146.0,8.99,-14.89,-13.87,0,*4B
1499320869.04,8918,18.0,74146.0,9.03,-14.97,-14.11,0,*41
1499320870.26,8919,18.0,74152.0,9.09,-14.93,-14.23,0,*4F
1499320871.48,8920,18.0,74152.5,9.13,-14.29,-13.83,0,*42
1499320872.67,8921,18.0,74152.5,9.17,-13.93,-13.69,0,*45
1499320873.9,8922,18.0,74158.8,9.17,-14.23,-14.05,0,*47
1499320875.14,8923,18.0,74162.5,9.19,-15.11,-14.55,0,*4D
1499320876.35,8924,18.0,74162.5,9.21,-15.01,-14.29,0,*4B
1499320877.54,8925,18.0,74162.5,9.25,-15.25,-14.29,0,*48
1499320878.76,8926,18.0,74162.3,9.25,-15.53,-14.43,0,*46
1499320879.97,8927,18.0,74162.3,9.31,-15.63,-14.23,0,*47
1499320881.22,8928,18.0,74164.3,9.31,-16.23,-14.65,0,*4D
1499320882.45,8929,18.0,74164.8,9.35,-15.43,-13.69,0,*46
1499320883.68,8930,18.0,74166.3,9.35,-14.93,-13.15,0,*49
1499320884.92,8931,18.0,74168.5,9.39,-14.79,-12.93,0,*4F
1499320886.14,8932,18.0,74164.3,9.43,-15.67,-13.87,0,*4B
1499320887.34,8933,18.0,74162.8,9.43,-15.95,-14.15,0,*4B
1499320888.55,8934,18.0,74162.8,9.47,-15.99,-14.01,0,*41
1499320889.77,8935,18.0,74166.8,9.45,-16.03,-14.15,0,*47
1499320891.01,8936,18.0,74164.8,9.47,-15.85,-13.87,0,*47
1499320892.24,8937,18.0,74164.5,9.53,-15.71,-13.79,0,*49
1499320893.51,8938,18.0,74168.3,9.53,-17.03,-15.21,0,*4A
1499320894.78,8939,18.0,74164.5,9.53,-18.31,-16.27,0,*40
1499320896.03,8940,18.0,74160.0,9.53,-17.59,-15.49,0,*44
1499320897.25,8941,18.0,74158.5,9.53,-17.31,-15.11,0,*46
1499320898.47,8942,18.0,74156.0,9.53,-16.59,-14.37,0,*4F
1499320899.65,8943,18.0,74152.5,9.55,-15.63,-13.43,0,*46
1499320900.87,8944,18.0,74154.5,9.57,-14.65,-12.29,0,*49
1499320902.12,8945,18.0,74154.0,9.61,-14.19,-11.77,0,*4E
1499320903.36,8946,18.0,74158.5,9.65,-13.93,-11.59,0,*40
1499320904.56,8947,18.06,74156.8,9.67,-15.29,-12.97,0,*45
1499320905.78,8948,18.0,74158.8,9.67,-16.79,-14.47,0,*47
1499320907.03,8949,18.0,74162.8,9.67,-17.21,-14.83,0,*42
1499320908.22,8950,18.0,74164.8,9.67,-18.41,-16.03,0,*49
1499320909.48,8951,18.0,74158.8,9.65,-18.31,-15.75,0,*4F
1499320910.73,8952,18.0,74154.5,9.63,-19.57,-17.11,0,*4B
1499320911.92,8953,18.0,74154.8,9.63,-19.99,-17.49,0,*45
1499320913.16,8954,18.0,74152.5,9.61,-19.75,-17.17,0,*49
1499320914.41,8955,18.0,74156.8,9.59,-19.65,-17.07,0,*43
1499320915.61,8956,18.0,74154.0,9.55,-18.11,-15.29,0,*40
1499320916.86,8957,18.06,74148.8,9.55,-17.21,-14.47,0,*44
1499320918.13,8958,18.0,74144.0,9.57,-17.21,-14.47,0,*49
1499320919.37,8959,18.0,74150.8,9.57,-16.83,-13.87,0,*4A
1499320920.57,8960,18.0,74148.3,9.59,-15.15,-12.29,0,*47
1499320921.79,8961,18.0,74154.3,9.61,-14.65,-12.21,0,*43
1499320923.04,8962,18.0,74152.5,9.61,-15.35,-12.93,0,*4D
1499320924.31,8963,18.0,74152.8,9.65,-15.89,-13.29,0,*4F
1499320925.55,8964,18.0,74144.3,9.65,-17.11,-14.19,0,*4F
1499320926.76,8965,18.0,74146.5,9.67,-15.57,-12.89,0,*43
1499320927.96,8966,18.0,74148.0,9.67,-15.71,-13.11,0,*44
1499320929.2,8967,18.0,74148.8,9.69,-15.25,-12.57,0,*49
1499320930.45,8968,18.06,74156.0,9.71,-14.83,-12.11,0,*40
1499320931.66,8969,18.0,74154.0,9.73,-15.11,-12.39,0,*43
1499320932.91,8970,18.0,74154.3,9.73,-14.33,-11.67,0,*42
1499320934.16,8971,18.0,74154.3,9.79,-14.55,-11.85,0,*45
1499320935.41,8972,18.0,74154.5,9.81,-13.83,-11.19,0,*48
1499320936.63,8973,18.06,74156.3,9.83,-13.29,-10.97,0,*4C
1499320937.88,8974,18.06,74156.5,9.85,-12.71,-10.57,0,*4D
1499320939.12,8975,18.0,74156.3,9.89,-12.71,-10.53,0,*44
1499320940.32,8976,18.0,74158.0,9.91,-13.47,-11.45,0,*4C
1499320941.56,8977,18.06,74158.5,9.93,-14.83,-13.07,0,*44
1499320942.8,8978,18.06,74158.5,9.93,-14.79,-13.11,0,*49
1499320944.04,8979,18.0,74156.8,9.93,-14.43,-13.07,0,*46
1499320945.27,8980,18.0,74158.3,9.95,-14.51,-13.19,0,*4A
1499320946.52,8981,18.0,74156.8,9.93,-14.43,-13.07,0,*41
1499320947.76,8982,18.0,74156.0,9.93,-14.51,-13.23,0,*47
1499320949.01,8983,18.06,74154.8,9.93,-14.51,-13.23,0,*46
1499320950.26,8984,18.06,74152.8,9.93,-15.01,-13.79,0,*4A
1499320951.47,8985,18.0,74150.0,9.91,-14.97,-13.55,0,*49
1499320952.72,8986,18.0,74152.0,9.89,-14.83,-13.43,0,*41
1499320953.99,8987,18.0,74148.3,9.89,-14.55,-13.33,0,*4C
1499320955.27,8988,18.06,74154.0,9.89,-15.35,-13.97,0,*4A
1499320956.48,8989,18.06,74154.8,9.89,-15.07,-13.73,0,*40
1499320957.73,8990,18.0,74152.5,9.89,-15.07,-13.97,0,*42
1499320958.95,8991,18.0,74152.5,9.87,-16.37,-15.35,0,*43
1499320960.2,8992,18.0,74152.5,9.85,-16.09,-15.07,0,*4E
1499320961.42,8993,18.06,74150.5,9.83,-14.89,-14.01,0,*44
1499320962.66,8994,18.06,74148.0,9.81,-14.55,-13.69,0,*49
1499320963.88,8995,18.0,74148.3,9.81,-14.89,-14.15,0,*45
1499320965.12,8996,18.06,74150.8,9.79,-15.43,-14.83,0,*49
1499320966.31,8997,18.06,74144.5,9.79,-14.69,-14.11,0,*4A
1499320967.52,8998,18.06,74158.3,9.77,-14.61,-14.15,0,*47
1499320968.79,8999,18.0,74156.8,9.77,-13.79,-13.33,0,*4B
1499320970.04,9000,18.0,74156.3,9.73,-14.05,-14.19,0,*44
1499320971.27,9001,18.06,74160.5,9.71,-16.09,-15.25,0,*47
1499320972.48,9002,18.0,74156.3,9.67,-15.15,-14.43,0,*4C
1499320973.7,9003,18.0,74154.3,9.67,-14.89,-13.97,0,*47
1499320974.94,9004,18.06,74158.0,9.65,-15.35,-14.19,0,*45
1499320976.17,9005,18.0,74160.0,9.63,-14.55,-13.19,0,*42
1499320977.42,9006,18.06,74166.5,9.65,-14.75,-13.19,0,*45
1499320978.66,9007,18.06,74170.3,9.63,-15.43,-13.33,0,*4E
1499320979.87,9008,18.06,74164.8,9.63,-15.85,-13.47,0,*48
1499320981.11,9009,18.0,74162.0,9.61,-16.13,-13.47,0,*47
1499320982.3,9010,18.06,74164.0,9.59,-16.79,-13.69,0,*44
1499320983.55,9011,18.06,74158.5,9.59,-15.85,-12.53,0,*4D
1499320984.79,9012,18.06,74158.5,9.57,-15.89,-12.21,0,*49
1499320986.03,9013,18.06,74160.8,9.57,-14.79,-11.11,0,*46
1499320987.24,9014,18.06,74160.0,9.61,-12.25,-8.55,0,*73
1499320988.48,9015,18.0,74160.3,9.63,-12.35,-8.51,0,*75
1499320989.69,9016,18.06,74160.5,9.67,-12.15,-8.29,0,*7F
1499320990.89,9017,18.06,74162.3,9.69,-12.39,-8.33,0,*75
1499320992.13,9018,18.06,74164.5,9.73,-12.71,-8.41,0,*78
1499320993.37,9019,18.06,74160.0,9.81,-13.23,-9.11,0,*76
1499320994.62,9020,18.06,74162.0,9.81,-14.43,-10.09,0,*4C
1499320995.86,9021,18.06,74160.3,9.81,-14.97,-10.57,0,*4F
1499320997.09,9022,18.0,74156.3,9.81,-15.01,-10.57,0,*42
1499320998.31,9023,18.06,74162.0,9.81,-14.89,-10.23,0,*41
1499320999.5,9024,18.06,74164.3,9.83,-14.29,-9.89,0,*76
1499321000.69,9025,18.06,74166.8,9.83,-14.29,-9.79,0,*78
1499321001.93,9026,18.0,74160.5,9.85,-14.43,-9.89,0,*7E
1499321003.15,9027,18.06,74166.3,9.87,-13.97,-9.19,0,*7A
1499321004.34,9028,18.06,74166.0,9.87,-14.23,-9.75,0,*77
1499321005.57,9029,18.06,74164.8,9.87,-14.47,-9.97,0,*78
1499321006.79,9030,18.0,74166.0,9.89,-14.69,-10.31,0,*46
1499321008.03,9031,18.06,74170.3,9.89,-15.63,-11.29,0,*44
1499321009.25,9032,18.06,74166.8,9.89,-15.99,-11.41,0,*4C
1499321010.47,9033,18.06,74154.8,9.89,-16.79,-12.25,0,*41
1499321011.71,9034,18.06,74156.5,9.85,-18.21,-13.83,0,*44
1499321012.96,9035,18.06,74158.3,9.83,-18.35,-13.97,0,*43
1499321014.17,9036,18.06,74156.5,9.79,-16.93,-12.57,0,*4A
1499321015.39,9037,18.06,74154.8,9.79,-15.43,-11.19,0,*4C
1499321016.61,9038,18.06,74160.0,9.79,-15.11,-11.07,0,*4B
1499321017.85,9039,18.06,74158.5,9.77,-15.39,-11.19,0,*41
1499321019.07,9040,18.06,74156.8,9.79,-15.29,-11.07,0,*4F
1499321020.31,9041,18.06,74158.5,9.79,-14.97,-10.79,0,*42
1499321021.56,9042,18.06,74156.0,9.77,-16.17,-12.03,0,*4A
1499321022.8,9043,18.06,74156.8,9.77,-17.17,-13.15,0,*4C
1499321024.05,9044,18.06,74154.8,9.73,-17.17,-13.23,0,*4A
1499321025.23,9045,18.06,74152.0,9.71,-18.07,-13.93,0,*4C
1499321026.49,9046,18.06,74152.3,9.69,-16.75,-12.71,0,*40
1499321027.68,9047,18.06,74154.8,9.67,-13.23,-9.27,0,*70
1499321028.91,9048,18.06,74156.3,9.69,-13.11,-9.15,0,*71
1499321030.15,9049,18.06,74156.3,9.73,-12.53,-8.55,0,*79
1499321031.36,9050,18.06,74160.3,9.79,-12.07,-8.17,0,*7C
1499321032.55,9051,18.06,74158.8,9.79,-12.43,-8.45,0,*7A
1499321033.77,9052,18.06,74158.8,9.83,-13.79,-10.01,0,*4D
1499321035.0,9053,18.06,74152.3,9.83,-14.51,-10.57,0,*42
1499321036.21,9054,18.06,74152.0,9.81,-15.11,-11.11,0,*41
1499321037.41,9055,18.06,74154.8,9.83,-14.23,-10.53,0,*45
1499321038.66,9056,18.06,74150.5,9.83,-14.43,-10.71,0,*40
1499321039.86,9057,18.06,74154.5,9.83,-13.69,-10.15,0,*4C
1499321041.13,9058,18.06,74156.8,9.85,-15.57,-12.07,0,*4F
1499321042.4,9059,18.06,74158.0,9.85,-16.27,-12.57,0,*4F
1499321043.62,9060,18.06,74158.0,9.83,-15.81,-12.21,0,*4D
1499321044.86,9061,18.06,74152.3,9.83,-16.17,-12.65,0,*40
1499321046.08,9062,18.06,74156.8,9.81,-15.71,-12.03,0,*42
1499321047.3,9063,18.06,74156.5,9.79,-15.75,-12.15,0,*47
1499321048.54,9064,18.06,74158.8,9.79,-15.35,-11.77,0,*43
1499321049.76,9065,18.06,74162.0,9.79,-15.85,-12.39,0,*40
1499321050.98,9066,18.06,74160.3,9.79,-15.71,-12.15,0,*46
1499321052.22,9067,18.06,74160.8,9.77,-14.05,-10.85,0,*40
1499321053.44,9068,18.06,74166.5,9.79,-14.61,-11.55,0,*4F
1499321054.69,9069,18.06,74166.3,9.79,-13.87,-10.79,0,*4E
1499321055.91,9070,18.06,74162.5,9.79,-13.69,-10.79,0,*46
1499321057.13,9071,18.06,74162.3,9.81,-12.97,-10.23,0,*4F
1499321058.36,9072,18.06,74160.5,9.83,-12.65,-10.15,0,*46
1499321059.56,9073,18.06,74158.3,9.83,-12.21,-9.71,0,*7D
1499321060.78,9074,18.06,74158.0,9.87,-13.01,-10.53,0,*45
1499321061.97,9075,18.06,74156.5,9.87,-12.89,-10.53,0,*45
1499321063.19,9076,18.06,74158.0,9.87,-12.07,-9.71,0,*78
1499321064.41,9077,18.06,74156.3,9.87,-12.07,-9.71,0,*79
1499321065.65,9078,18.06,74152.5,9.91,-11.97,-9.53,0,*7B
1499321066.87,9079,18.06,74150.3,9.95,-11.51,-9.01,0,*73
1499321068.08,9080,18.06,74148.0,9.99,-10.01,-7.65,0,*71
1499321069.27,9081,18.06,74150.5,10.05,-10.05,-7.49,0,*47
1499321070.5,9082,18.06,74150.3,10.05,-11.29,-8.97,0,*47
1499321071.77,9083,18.06,74148.3,10.07,-11.81,-9.45,0,*48
1499321073.05,9084,18.06,74152.0,10.11,-10.63,-8.07,0,*42
1499321074.24,9085,18.06,74150.5,10.13,-9.75,-7.19,0,*7E
1499321075.48,9086,18.06,74154.5,10.17,-9.83,-7.43,0,*7F
1499321076.69,9087,18.06,74154.0,10.21,-10.41,-8.17,0,*43
1499321077.9,9088,18.06,74150.3,10.25,-10.57,-8.03,0,*4A
1499321079.11,9089,18.06,74154.3,10.27,-10.45,-7.53,0,*40
1499321080.32,9090,18.06,74152.3,10.29,-10.57,-7.05,0,*46
1499321081.52,9091,18.06,74150.3,10.29,-8.41,-4.53,0,*79
1499321082.7,9092,18.06,74148.8,10.29,-7.19,-3.15,0,*7D
1499321083.94,9093,18.06,74148.3,10.31,-5.03,-0.61,0,*4C
1499321085.15,9094,18.06,74148.3,10.31,-4.13,-0.37,0,*48
1499321086.37,9095,18.06,74148.5,10.33,-2.47,0.79,0,*6B
1499321087.6,9096,18.06,74150.5,10.35,-2.15,1.17,0,*50
1499321088.86,9097,18.06,74154.8,10.37,-1.99,0.87,0,*6C
1499321090.08,9098,18.06,74150.0,10.39,-2.63,-0.73,0,*4D
1499321091.29,9099,18.06,74156.8,10.45,-1.71,-1.33,0,*72
1499321092.52,9100,18.06,74158.5,10.45,-2.59,-4.09,0,*76
1499321093.77,9101,18.06,74162.3,10.49,-4.69,-6.93,0,*7F
1499321094.99,9102,18.06,74162.5,10.47,-7.05,-9.67,0,*7F
1499321096.2,9103,18.06,74158.8,10.51,-5.85,-8.55,0,*73
1499321097.45,9104,18.06,74158.5,10.53,-9.41,-12.03,0,*4A
1499321098.64,9105,18.06,74154.8,10.51,-11.01,-13.07,0,*71
1499321099.9,9106,18.06,74152.5,10.49,-11.93,-13.55,0,*77
1499321101.12,9107,18.06,74154.8,10.47,-11.85,-13.11,0,*7F
1499321102.37,9108,18.06,74154.8,10.47,-11.89,-12.83,0,*76
1499321103.61,9109,18.06,74156.5,10.47,-13.97,-14.29,0,*7C
1499321104.82,9110,18.06,74152.8,10.41,-13.93,-13.93,0,*70
1499321106.04,9111,18.06,74152.0,10.41,-13.73,-13.47,0,*76
1499321107.26,9112,18.06,74152.0,10.41,-12.93,-12.47,0,*7B
1499321108.53,9113,18.06,74150.5,10.45,-12.61,-12.15,0,*74
1499321109.77,9114,18.06,74148.0,10.45,-12.47,-11.77,0,*70
1499321111.02,9115,18.06,74152.0,10.45,-11.29,-10.45,0,*7A
1499321112.27,9116,18.06,74150.3,10.49,-11.37,-10.57,0,*79
1499321113.53,9117,18.06,74150.5,10.51,-11.59,-10.75,0,*79
1499321114.77,9118,18.06,74152.8,10.53,-11.89,-11.23,0,*7B
1499321116.02,9119,18.06,74156.0,10.57,-12.47,-11.85,0,*73
1499321117.26,9120,18.06,74154.0,10.57,-12.83,-12.29,0,*74
1499321118.53,9121,18.06,74152.8,10.57,-12.11,-11.59,0,*7A
1499321119.79,9122,18.06,74156.8,10.61,-12.21,-11.67,0,*72
1499321121.04,9123,18.06,74158.3,10.61,-12.21,-11.55,0,*72
1499321122.28,9124,18.06,74160.0,10.61,-12.65,-12.21,0,*75
1499321123.47,9125,18.06,74158.5,10.67,-12.89,-12.25,0,*74
1499321124.69,9126,18.06,74154.8,10.67,-13.29,-12.97,0,*75
1499321125.89,9127,18.06,74158.0,10.67,-13.43,-12.97,0,*78
1499321127.08,9128,18.06,74156.3,10.67,-14.15,-13.69,0,*73
1499321128.27,9129,18.06,74156.3,10.63,-13.93,-13.47,0,*73
1499321129.49,9130,18.06,74158.8,10.63,-14.61,-14.05,0,*70
1499321130.71,9131,18.06,74158.0,10.63,-13.33,-12.93,0,*78
1499321131.93,9132,18.06,74156.8,10.67,-13.19,-12.57,0,*7F
1499321133.16,9133,18.13,74160.0,10.63,-13.37,-12.93,0,*7E
1499321134.36,9134,18.06,74158.0,10.63,-13.23,-12.89,0,*77
1499321135.58,9135,18.06,74160.3,10.67,-12.21,-11.97,0,*7D
1499321136.77,9136,18.06,74158.5,10.67,-11.15,-11.19,0,*7C
1499321138.02,9137,18.06,74160.5,10.71,-11.73,-12.29,0,*7A
1499321139.24,9138,18.06,74162.3,10.71,-10.31,-11.01,0,*7B
1499321140.46,9139,18.06,74162.5,10.73,-10.85,-11.77,0,*76
1499321141.7,9140,18.06,74166.0,10.73,-11.93,-12.61,0,*7A
1499321142.94,9141,18.06,74166.0,10.77,-12.61,-13.33,0,*77
1499321144.17,9142,18.06,74164.8,10.75,-12.25,-12.93,0,*7D
1499321145.41,9143,18.06,74164.0,10.75,-13.07,-13.97,0,*78
1499321146.63,9144,18.06,74164.3,10.75,-13.11,-14.11,0,*71
1499321147.9,9145,18.06,74166.0,10.75,-13.37,-14.51,0,*70
1499321149.11,9146,18.06,74162.5,10.73,-13.47,-14.75,0,*74
1499321150.31,9147,18.06,74162.0,10.73,-13.19,-14.65,0,*7F
1499321151.55,9148,18.13,74164.3,10.73,-14.75,-16.27,0,*79
1499321152.78,9149,18.06,74162.8,10.71,-14.37,-16.03,0,*7A
1499321154.0,9150,18.06,74166.3,10.69,-14.51,-16.45,0,*79
1499321155.22,9151,18.13,74166.5,10.63,-13.87,-15.99,0,*7C
1499321156.45,9152,18.06,74166.8,10.63,-13.33,-15.75,0,*72
1499321157.68,9153,18.06,74166.8,10.63,-14.23,-17.03,0,*76
1499321158.93,9154,18.06,74164.0,10.59,-14.83,-17.59,0,*7D
1499321160.19,9155,18.06,74166.3,10.57,-13.83,-16.59,0,*74
1499321161.44,9156,18.06,74162.0,10.55,-13.29,-16.23,0,*78
1499321162.68,9157,18.06,74164.0,10.55,-13.01,-16.31,0,*70
1499321163.96,9158,18.06,74162.5,10.53,-12.75,-16.09,0,*70
1499321165.22,9159,18.06,74162.0,10.51,-12.11,-15.81,0,*72
1499321166.44,9160,18.13,74170.3,10.47,-12.11,-16.37,0,*71
1499321167.69,9161,18.06,74164.8,10.47,-11.85,-16.51,0,*7E
1499321168.96,9162,18.13,74166.5,10.45,-11.59,-17.11,0,*7B
1499321170.23,9163,18.13,74168.5,10.41,-11.51,-17.55,0,*76
1499321171.46,9164,18.06,74166.3,10.39,-11.11,-17.21,0,*79
1499321172.69,9165,18.13,74170.8,10.37,-10.57,-16.75,0,*75
1499321173.91,9166,18.13,74168.8,10.33,-10.31,-16.17,0,*76
1499321175.12,9167,18.13,74168.8,10.33,-10.19,-15.49,0,*75
1499321176.32,9168,18.06,74166.8,10.33,-10.49,-15.49,0,*7F
1499321177.57,9169,18.06,74166.3,10.33,-11.29,-15.85,0,*79
1499321178.8,9170,18.06,74168.5,10.29,-12.11,-16.55,0,*7C
1499321180.04,9171,18.06,74168.8,10.25,-13.01,-17.17,0,*76
1499321181.27,9172,18.06,74172.0,10.23,-12.93,-17.35,0,*79
1499321182.47,9173,18.13,74172.0,10.21,-13.69,-18.25,0,*70
1499321183.69,9174,18.06,74172.8,10.15,-13.23,-19.03,0,*7B
1499321184.91,9175,18.06,74172.8,10.13,-14.37,-21.03,0,*75
1499321186.14,9176,18.13,74172.3,10.09,-15.81,-22.03,0,*72
1499321187.36,9177,18.06,74164.3,10.03,-16.79,-22.73,0,*7A
1499321188.55,9178,18.06,74162.3,9.99,-16.89,-22.67,0,*44
1499321189.79,9179,18.13,74164.0,9.93,-16.89,-22.73,0,*4A
1499321191.01,9180,18.13,74164.3,9.87,-17.59,-23.75,0,*42
1499321192.28,9181,18.06,74162.8,9.85,-17.17,-23.53,0,*4F
1499321193.52,9182,18.13,74162.3,9.81,-17.93,-24.51,0,*41
1499321194.79,9183,18.13,74160.5,9.77,-18.01,-24.25,0,*4E
1499321196.02,9184,18.13,74158.0,9.71,-17.63,-23.49,0,*49
1499321197.26,9185,18.13,74158.5,9.67,-18.89,-24.41,0,*4B
1499321198.48,9186,18.13,74158.8,9.65,-19.03,-24.05,0,*49
1499321199.69,9187,18.06,74150.8,9.63,-20.39,-24.83,0,*43
1499321200.96,9188,18.13,74152.3,9.57,-20.79,-24.71,0,*42
1499321202.21,9189,18.13,74150.8,9.49,-21.83,-25.13,0,*4D
1499321203.45,9190,18.06,74148.8,9.49,-21.13,-23.85,0,*45
1499321204.67,9191,18.06,74148.5,9.43,-20.93,-23.65,0,*49
1499321205.92,9192,18.06,74154.3,9.41,-20.63,-23.19,0,*4C
1499321207.16,9193,18.06,74156.3,9.37,-19.61,-21.97,0,*40
1499321208.36,9194,18.13,74156.5,9.37,-18.99,-22.57,0,*4E
1499321209.56,9195,18.13,74150.3,9.33,-19.81,-24.57,0,*45
1499321210.78,9196,18.13,74146.8,9.27,-18.25,-23.89,0,*48
1499321212.03,9197,18.13,74142.5,9.25,-17.45,-23.03,0,*40
1499321213.22,9198,18.13,74144.0,9.25,-16.59,-22.37,0,*45
1499321214.41,9199,18.13,74146.0,9.25,-16.75,-22.37,0,*4A
1499321215.63,9200,18.13,74146.5,9.25,-17.73,-23.23,0,*4A
1499321216.88,9201,18.13,74150.0,9.23,-19.65,-25.19,0,*4B
1499321218.13,9202,18.13,74154.3,9.23,-20.15,-25.49,0,*40
1499321219.32,9203,18.13,74156.0,9.21,-19.47,-24.77,0,*42
1499321220.57,9204,18.13,74156.5,9.19,-19.07,-23.99,0,*4D
1499321221.78,9205,18.06,74156.8,9.19,-18.65,-23.59,0,*45
1499321223.03,9206,18.13,74162.5,9.19,-18.49,-23.33,0,*44
1499321224.25,9207,18.13,74166.0,9.17,-19.57,-24.31,0,*40
1499321225.5,9208,18.06,74162.3,9.17,-19.61,-24.15,0,*4C
1499321226.74,9209,18.13,74166.3,9.15,-19.41,-23.89,0,*4F
1499321227.98,9210,18.13,74168.0,9.15,-18.99,-23.23,0,*43
1499321229.21,9211,18.13,74160.5,9.15,-18.83,-22.93,0,*43
1499321230.43,9212,18.13,74160.5,9.17,-18.99,-22.73,0,*47
1499321231.64,9213,18.13,74168.8,9.17,-18.55,-22.11,0,*42
1499321232.89,9214,18.13,74162.8,9.15,-21.73,-25.81,0,*47
1499321234.14,9215,18.13,74162.3,9.13,-21.67,-25.71,0,*4A
1499321235.37,9216,18.13,74164.5,9.11,-20.93,-25.39,0,*4D
1499321236.59,9217,18.13,74170.0,9.09,-21.13,-25.45,0,*47
1499321237.85,9218,18.13,74168.3,9.05,-20.99,-24.83,0,*4C
1499321239.12,9219,18.13,74170.3,9.01,-21.97,-26.13,0,*4D
1499321240.36,9220,18.13,74170.8,9.03,-21.67,-26.17,0,*4E
1499321241.61,9221,18.06,74168.5,8.99,-21.03,-25.71,0,*4C
1499321242.86,9222,18.13,74174.0,8.97,-20.43,-25.03,0,*41
1499321244.13,9223,18.13,74172.5,8.97,-21.03,-25.55,0,*46
1499321245.37,9224,18.13,74174.0,8.95,-22.73,-26.81,0,*4D
1499321246.61,9225,18.13,74168.0,8.93,-23.99,-27.71,0,*41
1499321247.83,9226,18.13,74154.0,8.89,-23.13,-26.45,0,*4D
1499321249.04,9227,18.13,74146.0,8.87,-21.57,-24.93,0,*49
1499321250.26,9228,18.13,74146.8,8.87,-19.65,-22.83,0,*4B
1499321251.48,9229,18.13,74152.5,8.87,-17.97,-21.17,0,*47
1499321252.68,9230,18.13,74158.3,8.91,-18.83,-21.93,0,*4E
1499321253.91,9231,18.13,74160.3,8.95,-20.15,-23.53,0,*41
1499321255.16,9232,18.13,74152.3,8.93,-21.93,-25.55,0,*4B
1499321256.35,9233,18.13,74150.5,8.91,-23.09,-26.65,0,*49
1499321257.56,9234,18.13,74148.3,8.89,-21.43,-24.57,0,*48
1499321258.81,9235,18.13,74158.8,8.89,-21.23,-25.19,0,*44
1499321260.02,9236,18.13,74154.5,8.89,-22.83,-26.45,0,*44
1499321261.27,9237,18.13,74150.8,8.85,-23.03,-26.61,0,*46
1499321262.51,9238,18.13,74154.0,8.85,-21.87,-25.23,0,*42
1499321263.76,9239,18.13,74154.3,8.81,-20.99,-24.35,0,*4F
1499321264.98,9240,18.13,74156.0,8.79,-21.13,-24.21,0,*40
1499321266.22,9241,18.13,74152.8,8.81,-20.19,-23.39,0,*43
1499321267.45,9242,18.13,74156.5,8.85,-20.35,-23.79,0,*4E
1499321268.72,9243,18.13,74152.8,8.85,-20.83,-23.95,0,*40
1499321269.96,9244,18.13,74154.5,8.85,-19.47,-22.73,0,*4C
1499321271.15,9245,18.13,74152.0,8.87,-18.45,-22.27,0,*4D
1499321272.38,9246,18.13,74148.5,8.89,-20.29,-23.49,0,*48
1499321273.63,9247,18.13,74152.8,8.89,-19.41,-22.53,0,*47
1499321274.82,9248,18.13,74148.5,8.91,-19.51,-22.63,0,*43
1499321276.04,9249,18.13,74150.3,8.91,-18.99,-21.97,0,*4F
1499321277.28,9250,18.13,74152.5,8.93,-17.31,-20.19,0,*4F
1499321278.5,9251,18.13,74150.3,8.95,-17.17,-19.91,0,*46
1499321279.71,9252,18.06,74146.8,9.01,-16.45,-19.03,0,*44
1499321280.92,9253,18.13,74152.0,9.03,-15.99,-18.55,0,*47
1499321282.13,9254,18.13,74148.5,9.03,-16.13,-18.25,0,*46
1499321283.37,9255,18.13,74154.0,9.05,-15.85,-18.11,0,*4A
1499321284.64,9256,18.13,74152.3,9.11,-15.21,-18.01,0,*43
1499321285.89,9257,18.13,74152.5,9.11,-14.37,-18.01,0,*44
1499321287.16,9258,18.13,74148.8,9.11,-12.35,-17.25,0,*46
1499321288.38,9259,18.13,74148.5,9.13,-10.75,-16.45,0,*44
1499321289.6,9260,18.13,74154.3,9.13,-8.41,-15.35,0,*74
1499321290.83,9261,18.13,74150.3,9.15,-7.61,-15.99,0,*78
1499321292.07,9262,18.13,74144.3,9.15,-7.05,-15.71,0,*7F
1499321293.26,9263,18.13,74146.8,9.17,-6.69,-15.71,0,*77
1499321294.49,9264,18.13,74146.5,9.17,-5.89,-15.29,0,*70
1499321295.72,9265,18.13,74152.5,9.17,-4.73,-14.93,0,*75
1499321296.97,9266,18.13,74152.0,9.19,-3.87,-15.21,0,*7C
1499321298.18,9267,18.13,74154.0,9.21,-4.01,-16.45,0,*7E
1499321299.38,9268,18.13,74148.8,9.21,-3.75,-16.79,0,*7A
1499321300.57,9269,18.13,74158.0,9.21,-4.37,-17.87,0,*7A
1499321301.82,9270,18.13,74156.3,9.21,-4.89,-18.31,0,*75
1499321303.05,9271,18.13,74152.3,9.23,-6.69,-19.85,0,*74
1499321304.26,9272,18.13,74154.5,9.23,-7.49,-19.99,0,*79
1499321305.48,9273,18.13,74156.5,9.25,-8.81,-21.17,0,*78
1499321306.71,9274,18.13,74158.3,9.23,-10.53,-22.73,0,*4E
1499321307.95,9275,18.13,74158.5,9.23,-11.85,-23.13,0,*42
1499321309.2,9276,18.13,74160.5,9.21,-12.61,-23.23,0,*49
1499321310.45,9277,18.13,74162.5,9.23,-14.05,-23.89,0,*4E